Weather History for Sidney-Richland, MT

Change the Weather History Date:

Thursday, May 23, 2013

  Actual Average Record
Temperature  
Mean Temperature 60 °F -  
Max Temperature 71 °F 74 °F 95 °F (1980)
Min Temperature 48 °F 44 °F 30 °F (1949)
Degree Days  
Heating Degree Days 6    
Growing Degree Days 10 (Base 50)    
Moisture  
Dew Point 43 °F    
Average Humidity 56    
Maximum Humidity 82    
Minimum Humidity 35    
Precipitation  
Precipitation 0.00 in - - ()
Sea Level Pressure  
Sea Level Pressure 30.12 in    
Wind  
Wind Speed 12 mph (ESE)    
Max Wind Speed 28 mph    
Max Gust Speed 37 mph    
Visibility 10 miles    
Events      
Averages and records for this station are not official NWS values.
T = Trace of Precipitation, MM = Missing Value Source: NWS Daily Summary

Daily Weather History Graph

Daily Weather History Graph

Search for Another Location

Airport:

Trip Planner

Search our weather history database for the weather conditions in past years. The results will help you decide how hot, cold, wet, or windy it might be!

Date:

Astronomy

May. 23, 2013 Rise Set
Actual Time 5:09 AM MDT 8:38 PM MDT
Civil Twilight 4:31 AM MDT 9:16 PM MDT
Nautical Twilight 3:41 AM MDT 10:07 PM MDT
Astronomical Twilight 2:34 AM MDT 11:14 PM MDT
Moon 7:08 PM MDT (5/23) 4:04 AM MDT (5/23)
Length of Visible Light 16h 44m
Length of Day
15h 28m
Waxing Gibbous, 97% of the Moon is Illuminated
May 23
Waxing Gibbous
May 24
Full
May 31
Last Quarter
Jun 8
New
Jun 16
First Quarter

Hourly Weather History & Observations

Time (MDT) Temp. Dew Point Humidity Pressure Visibility Wind Dir Wind Speed Gust Speed Precip Events Conditions
12:15 AM 51.8 °F 41.0 °F 67% 30.19 in 10.0 mi East 4.6 mph - N/A   Clear
12:35 AM 53.6 °F 39.2 °F 58% 30.19 in 10.0 mi ENE 4.6 mph - N/A   Clear
12:55 AM 48.2 °F 39.2 °F 71% 30.20 in 10.0 mi NE 6.9 mph - N/A   Clear
1:15 AM 48.2 °F 41.0 °F 76% 30.20 in 10.0 mi NE 6.9 mph - N/A   Clear
1:35 AM 48.2 °F 41.0 °F 76% 30.20 in 10.0 mi ENE 6.9 mph - N/A   Clear
1:55 AM 48.2 °F 39.2 °F 71% 30.20 in 10.0 mi NNE 5.8 mph - N/A   Clear
2:15 AM 48.2 °F 39.2 °F 71% 30.20 in 10.0 mi NE 6.9 mph - N/A   Clear
2:35 AM 48.2 °F 39.2 °F 71% 30.21 in 10.0 mi ENE 6.9 mph - N/A   Clear
2:55 AM 48.2 °F 41.0 °F 76% 30.21 in 10.0 mi ENE 5.8 mph - N/A   Clear
3:15 AM 48.2 °F 41.0 °F 76% 30.22 in 10.0 mi NE 3.5 mph - N/A   Clear
3:35 AM 48.2 °F 41.0 °F 76% 30.21 in 10.0 mi NNE 4.6 mph - N/A   Clear
3:55 AM 48.2 °F 41.0 °F 76% 30.21 in 10.0 mi ENE 5.8 mph - N/A   Clear
4:15 AM 48.2 °F 42.8 °F 82% 30.21 in 10.0 mi East 6.9 mph - N/A   Clear
4:35 AM 48.2 °F 42.8 °F 82% 30.21 in 10.0 mi East 5.8 mph - N/A   Clear
4:55 AM 48.2 °F 42.8 °F 82% 30.21 in 10.0 mi East 5.8 mph - N/A   Clear
5:15 AM 48.2 °F 42.8 °F 82% 30.21 in 10.0 mi East 10.4 mph - N/A   Clear
5:55 AM 48.2 °F 42.8 °F 82% 30.20 in 10.0 mi East 10.4 mph - N/A   Clear
6:15 AM 50.0 °F 42.8 °F 76% 30.20 in 10.0 mi East 11.5 mph - N/A   Clear
6:35 AM 50.0 °F 42.8 °F 76% 30.21 in 10.0 mi ESE 10.4 mph - N/A   Clear
6:55 AM 51.8 °F 44.6 °F 76% 30.21 in 10.0 mi ESE 11.5 mph - N/A   Clear
7:15 AM 53.6 °F 44.6 °F 72% 30.21 in 10.0 mi ESE 12.7 mph - N/A   Clear
7:35 AM 53.6 °F 44.6 °F 72% 30.21 in 10.0 mi ESE 15.0 mph - N/A   Clear
7:55 AM 55.4 °F 44.6 °F 67% 30.20 in 10.0 mi ESE 11.5 mph - N/A   Clear
8:15 AM 55.4 °F 44.6 °F 67% 30.20 in 10.0 mi ESE 11.5 mph - N/A   Clear
8:35 AM 57.2 °F 46.4 °F 67% 30.20 in 10.0 mi ESE 12.7 mph - N/A   Clear
8:55 AM 59.0 °F 46.4 °F 63% 30.20 in 10.0 mi ESE 16.1 mph 20.7 mph N/A   Clear
9:15 AM 60.8 °F 46.4 °F 59% 30.20 in 10.0 mi East 15.0 mph - N/A   Clear
9:55 AM 62.6 °F 46.4 °F 55% 30.18 in 10.0 mi ESE 12.7 mph - N/A   Clear
10:35 AM 64.4 °F 46.4 °F 52% 30.18 in 10.0 mi ESE 18.4 mph 25.3 mph N/A   Clear
10:55 AM 64.4 °F 46.4 °F 52% 30.17 in 10.0 mi SE 21.9 mph 29.9 mph N/A   Scattered Clouds
11:15 AM 66.2 °F 46.4 °F 49% 30.16 in 10.0 mi ESE 19.6 mph 32.2 mph N/A   Scattered Clouds
11:35 AM 66.2 °F 42.8 °F 43% 30.15 in 10.0 mi SE 18.4 mph 29.9 mph N/A   Scattered Clouds
11:55 AM 68.0 °F 44.6 °F 43% 30.14 in 10.0 mi SE 20.7 mph 31.1 mph N/A   Mostly Cloudy
12:15 PM 69.8 °F 42.8 °F 38% 30.14 in 10.0 mi ESE 26.5 mph 35.7 mph N/A   Mostly Cloudy
12:35 PM 69.8 °F 42.8 °F 38% 30.13 in 10.0 mi SE 26.5 mph 32.2 mph N/A   Scattered Clouds
12:55 PM 69.8 °F 42.8 °F 38% 30.13 in 10.0 mi ESE 20.7 mph 27.6 mph N/A   Mostly Cloudy
1:35 PM 71.6 °F 42.8 °F 35% 30.11 in 10.0 mi SE 17.3 mph 32.2 mph N/A   Scattered Clouds
1:55 PM 71.6 °F 42.8 °F 35% 30.10 in 10.0 mi SE 21.9 mph 36.8 mph N/A   Partly Cloudy
2:15 PM 69.8 °F 42.8 °F 38% 30.09 in 10.0 mi ESE 21.9 mph 34.5 mph N/A   Partly Cloudy
2:35 PM 71.6 °F 42.8 °F 35% 30.09 in 10.0 mi SE 20.7 mph 27.6 mph N/A   Clear
2:55 PM 71.6 °F 42.8 °F 35% 30.08 in 10.0 mi SE 21.9 mph 34.5 mph N/A   Clear
3:35 PM 69.8 °F 42.8 °F 38% 30.07 in 10.0 mi SE 27.6 mph 33.4 mph N/A   Clear
3:55 PM 69.8 °F 42.8 °F 38% 30.05 in 10.0 mi SE 27.6 mph 32.2 mph N/A   Clear
4:35 PM 68.0 °F 42.8 °F 40% 30.05 in 10.0 mi SE 18.4 mph 27.6 mph N/A   Clear
4:55 PM 68.0 °F 42.8 °F 40% 30.05 in 10.0 mi SE 24.2 mph 31.1 mph N/A   Clear
5:35 PM 68.0 °F 42.8 °F 40% 30.04 in 10.0 mi SE 19.6 mph 28.8 mph N/A   Partly Cloudy
6:15 PM 68.0 °F 42.8 °F 40% 30.03 in 10.0 mi SE 25.3 mph 34.5 mph N/A   Clear
6:35 PM 69.8 °F 42.8 °F 38% 30.02 in 10.0 mi SE 18.4 mph 28.8 mph N/A   Clear
6:55 PM 68.0 °F 41.0 °F 37% 30.02 in 10.0 mi SE 26.5 mph 35.7 mph N/A   Clear
7:15 PM 66.2 °F 42.8 °F 43% 30.01 in 10.0 mi SE 21.9 mph 32.2 mph N/A   Clear
7:35 PM 66.2 °F 42.8 °F 43% 30.01 in 10.0 mi SE 20.7 mph 26.5 mph N/A   Clear
8:15 PM 64.4 °F 42.8 °F 45% 30.01 in 10.0 mi SE 20.7 mph 25.3 mph N/A   Clear
8:35 PM 64.4 °F 42.8 °F 45% 30.01 in 10.0 mi SE 17.3 mph - N/A   Clear
8:55 PM 64.4 °F 42.8 °F 45% 30.01 in 10.0 mi SE 16.1 mph 26.5 mph N/A   Clear
9:15 PM 62.6 °F 42.8 °F 48% 30.02 in 10.0 mi SE 18.4 mph 24.2 mph N/A   Clear
9:35 PM 62.6 °F 42.8 °F 48% 30.02 in 10.0 mi SE 19.6 mph 25.3 mph N/A   Clear
9:55 PM 62.6 °F 42.8 °F 48% 30.02 in 10.0 mi SE 17.3 mph 25.3 mph N/A   Clear
10:15 PM 60.8 °F 42.8 °F 52% 30.02 in 10.0 mi ESE 15.0 mph 24.2 mph N/A   Clear
10:35 PM 60.8 °F 42.8 °F 52% 30.01 in 10.0 mi ESE 13.8 mph 21.9 mph N/A   Clear
10:55 PM 60.8 °F 41.0 °F 48% 30.00 in 10.0 mi SE 19.6 mph 27.6 mph N/A   Clear
11:15 PM 60.8 °F 41.0 °F 48% 29.99 in 10.0 mi SE 20.7 mph 25.3 mph N/A   Clear
11:35 PM 60.8 °F 41.0 °F 48% 29.99 in 10.0 mi SE 24.2 mph 28.8 mph N/A   Clear
11:55 PM 59.0 °F 42.8 °F 55% 29.98 in 10.0 mi ESE 19.6 mph 27.6 mph N/A   Clear